Weather in Gulbarga

India     17°19′57″N   76°50′25″E
temp.,
°C
wind,
m/s
gust,
m/s
humid.,
%
clouds,
%
prec.,
mm/h
press.,
hPa
HPBL,
m
17 may, tue
tue1723:30+34se353471 0.6 1003243
02:30+33s5839100 0.0 1002626
05:30+31ssw365096 0.5 1004534
08:30+33wnw4342100 0.1 10051035
11:30+37nnw132963 0.1 10032238
14:30+38e562797 0.0 10002886
17:30+30sw4448100 2.4 1002491
20:30+28sse5863100 4.9 1004310
18 may, wed
wed1823:30+28s6658100 4.9 1003200
02:30+28w6855100 0.1 1004653
05:30+28wsw3456100 0.2 1005622
08:30+28wnw6859100 0.1 1007539
11:30+30wnw5651100 0.1 1006859
14:30+33nw5639100 0.0 10041686
17:30+32nw783995 0.0 10031047
20:30+30w2242100 0.1 1005126
19 may, thu
thu1923:30+30wsw344390 0.1 1005171
02:30+29sse2248100 0.0 1005202
05:30+26se6771100 0.0 1007351
08:30+27wsw3464100 0.0 1008321
11:30+31wsw224599 0.0 1007967
14:30+35s033278 0.0 10032216
17:30+34se6434100 0.0 1002575
20:30+32s6745100 0.0 1004427
20 may, fri
fri2023:30+32sw91142100 0.0 1005998
02:30+29sw794999 0.3 1005566
05:30+28wsw685799 0.3 1006556
08:30+29w884872 0.0 1007852
11:30+35wnw772587 0.0 10051645
14:30+39wnw662065 0.0 10023239
17:30+39w6719100 0.0 10002298
20:30+38sw682256 0.0 1002639
21 may, sat
sat2123:30+31w121538100 0.0 1004903
02:30+28w10134598 0.0 1004764
05:30+27w8105342 0.0 1005723
08:30+29w9104839 0.0 1007910
11:30+35wnw782815 0.0 10051534
14:30+39wnw772036 0.0 10012540
17:30+40w671833 0.0 10003398
20:30+36w13142798 0.0 10011941